Louisville, KY

11:46 AM EDT on June 28, 2017 (GMT -0400)
Louisville International-Standiford

Weather History for KSDF - January, 2015

Change the Weather History Date:

Friday, January 23, 2015

  Actual Average Record
Temperature  
Mean Temperature 36 °F 35 °F  
Max Temperature 39 °F 43 °F 71 °F (1967)
Min Temperature 33 °F 27 °F -13 °F (1963)
Degree Days  
Heating Degree Days 29 30  
Month to date heating degree days 723 690  
Since 1 July heating degree days 2345 2266  
Cooling Degree Days 0 0  
Month to date cooling degree days 0 0  
Year to date cooling degree days 0 0  
Moisture  
Dew Point 28 °F    
Average Humidity 80    
Maximum Humidity 96    
Minimum Humidity 64    
Precipitation  
Precipitation 0.12 in 0.10 in 2.05 in (1876)
Month to date precipitation 0.74 2.39  
Year to date precipitation 0.74 2.39  
Snow  
Snow 1.00 in 0.20 in 4.60 in (1963)
Month to date snowfall 1.0 2.6  
Since 1 July snowfall 4.7 5.4  
Snow Depth 0.00 in    
Sea Level Pressure  
Sea Level Pressure 30.11 in    
Wind  
Wind Speed 6 mph (North)    
Max Wind Speed 12 mph    
Max Gust Speed 14 mph    
Visibility 4 miles    
Events Fog , Rain , Snow    
T = Trace of Precipitation, MM = Missing Value Source: NWS Daily Summary

Daily Weather History Graph

Daily Weather History Graph

Search for Another Location

Airport or City:

Trip Planner

Search our weather history database for the weather conditions in past years. The results will help you decide how hot, cold, wet, or windy it might be!

Date:

Astronomy

Jan. 23, 2015 Rise Set
Actual Time 7:54 AM EST 5:55 PM EST
Civil Twilight 7:26 AM EST 6:23 PM EST
Nautical Twilight 6:54 AM EST 6:55 PM EST
Astronomical Twilight 6:22 AM EST 7:27 PM EST
Moon 9:49 AM EST (1/23) 10:00 PM EST (1/23)
Length of Visible Light 10h 57m
Length of Day
10h 00m
Waxing Crescent, 14% of the Moon is Illuminated
Jan 23
Waxing Crescent
Jan 26
First Quarter
Feb 3
Full
Feb 11
Last Quarter
Feb 18
New

Hourly Weather History & Observations

Time (EST) Temp. Windchill Dew Point Humidity Pressure Visibility Wind Dir Wind Speed Gust Speed Precip Events Conditions
12:56 AM 35.1 °F 29.3 °F 25.0 °F 67% 30.39 in 10.0 mi NNE 6.9 mph - N/A   Overcast
1:56 AM 34.0 °F 27.2 °F 25.0 °F 70% 30.37 in 10.0 mi NNE 8.1 mph - N/A   Overcast
2:56 AM 34.0 °F 28.0 °F 25.0 °F 70% 30.35 in 9.0 mi NE 6.9 mph - N/A   Overcast
3:56 AM 34.0 °F 28.0 °F 25.0 °F 70% 30.34 in 8.0 mi ENE 6.9 mph - N/A   Overcast
4:12 AM 34.0 °F 29.8 °F 25.0 °F 70% 30.32 in 9.0 mi NE 4.6 mph - N/A   Overcast
4:56 AM 34.0 °F 28.0 °F 25.0 °F 70% 30.32 in 8.0 mi NNE 6.9 mph - N/A   Overcast
5:47 AM 34.0 °F 28.0 °F 25.0 °F 70% 30.29 in 8.0 mi NNE 6.9 mph - N/A   Overcast
5:56 AM 34.0 °F 28.8 °F 25.0 °F 70% 30.29 in 8.0 mi NNE 5.8 mph - N/A   Overcast
6:56 AM 34.0 °F 26.6 °F 25.0 °F 70% 30.28 in 7.0 mi NNE 9.2 mph - N/A   Overcast
7:56 AM 33.1 °F 26.9 °F 25.0 °F 72% 30.27 in 7.0 mi NNE 6.9 mph - N/A   Overcast
8:56 AM 34.0 °F 27.2 °F 26.1 °F 73% 30.26 in 5.0 mi NNE 8.1 mph - N/A   Haze
9:56 AM 35.1 °F 27.4 °F 26.1 °F 70% 30.22 in 6.0 mi NNE 10.4 mph - N/A   Haze
10:56 AM 35.1 °F 28.6 °F 26.1 °F 70% 30.22 in 6.0 mi NNE 8.1 mph - N/A   Haze
11:56 AM 37.0 °F 33.3 °F 26.1 °F 65% 30.19 in 6.0 mi East 4.6 mph - N/A   Haze
12:56 PM 37.9 °F 33.5 °F 26.1 °F 62% 30.14 in 6.0 mi North 5.8 mph - N/A   Haze
1:56 PM 37.9 °F 34.4 °F 27.0 °F 65% 30.10 in 6.0 mi North 4.6 mph - 0.00 in Snow Light Snow
2:45 PM 37.9 °F 33.5 °F 28.0 °F 68% 30.05 in 3.0 mi Variable 5.8 mph - 0.00 in Rain Light Rain
2:51 PM 37.4 °F 32.1 °F 28.4 °F 70% 30.05 in 4.0 mi North 6.9 mph - 0.00 in Rain , Snow Light Rain
2:56 PM 37.9 °F 33.5 °F 28.9 °F 70% 30.06 in 4.0 mi North 5.8 mph - 0.00 in Rain , Snow Light Rain
3:51 PM 37.4 °F 31.4 °F 28.4 °F 70% 30.02 in 6.0 mi NNE 8.1 mph - 0.00 in Rain Light Ice Pellets
3:56 PM 37.9 °F 32.7 °F 28.9 °F 70% 30.03 in 5.0 mi NE 6.9 mph - 0.00 in   Haze
4:56 PM 37.9 °F 31.5 °F 28.9 °F 70% 30.02 in 6.0 mi North 9.2 mph - 0.00 in   Haze
5:35 PM 37.0 °F 31.6 °F 28.0 °F 70% 30.01 in 2.0 mi North 6.9 mph - 0.00 in Snow Light Snow
5:38 PM 37.0 °F 31.0 °F 28.0 °F 70% 30.01 in 1.8 mi North 8.1 mph - 0.00 in Snow Light Snow
5:45 PM 37.0 °F 32.4 °F 28.9 °F 73% 30.01 in 2.0 mi NNE 5.8 mph - 0.01 in Snow Light Snow
5:56 PM 36.0 °F 32.1 °F 30.0 °F 79% 30.03 in 2.5 mi North 4.6 mph - 0.01 in Snow Light Snow
6:08 PM 35.1 °F 30.1 °F 30.9 °F 85% 30.01 in 1.8 mi North 5.8 mph - 0.00 in Snow Light Snow
6:27 PM 34.0 °F 29.8 °F 30.9 °F 89% 30.00 in 0.8 mi NNE 4.6 mph - 0.01 in Snow Light Snow
6:56 PM 33.1 °F 28.7 °F 30.9 °F 92% 30.01 in 0.5 mi North 4.6 mph - 0.05 in Fog , Snow Snow
7:07 PM 33.1 °F 28.7 °F 32.0 °F 96% 29.99 in 0.8 mi NNW 4.6 mph - 0.02 in Snow Light Snow
7:15 PM 33.1 °F 28.7 °F 32.0 °F 96% 29.99 in 0.5 mi North 4.6 mph - 0.02 in Fog , Snow Snow
7:33 PM 33.1 °F 30.0 °F 32.0 °F 96% 29.98 in 0.8 mi North 3.5 mph - 0.04 in Snow Light Snow
7:40 PM 33.1 °F 30.0 °F 32.0 °F 96% 29.98 in 1.0 mi North 3.5 mph - 0.04 in Snow Light Snow
7:56 PM 33.1 °F 30.0 °F 32.0 °F 96% 29.99 in 1.0 mi NNW 3.5 mph - 0.05 in Snow Light Snow
8:05 PM 33.1 °F - 32.0 °F 96% 29.97 in 0.8 mi Calm Calm - 0.00 in Snow Light Snow
8:11 PM 33.1 °F - 32.0 °F 96% 29.97 in 1.0 mi Calm Calm - 0.01 in Snow Light Snow
8:29 PM 33.1 °F - 30.9 °F 92% 29.96 in 1.2 mi Calm Calm - 0.01 in Snow Light Snow
8:56 PM 33.1 °F - 30.9 °F 92% 29.96 in 2.0 mi Calm Calm - 0.01 in   Overcast
9:22 PM 34.0 °F 31.0 °F 32.0 °F 92% 29.96 in 3.0 mi West 3.5 mph - N/A   Overcast
9:56 PM 33.1 °F 28.7 °F 32.0 °F 96% 29.96 in 3.0 mi WNW 4.6 mph - N/A   Overcast
10:03 PM 33.1 °F 30.0 °F 32.0 °F 96% 29.94 in 2.5 mi West 3.5 mph - N/A   Overcast
10:56 PM 33.1 °F - 32.0 °F 96% 29.93 in 3.0 mi Calm Calm - N/A   Overcast
11:56 PM 34.0 °F 29.8 °F 30.9 °F 89% 29.91 in 4.0 mi West 4.6 mph - N/A   Overcast